When you browse on this site, cookies collect data to enhance your experience and personalize the content and advertising you see.
Visit our Privacy Policy to learn more. By continuing to use the site, you agree to this use of cookies and data.
  • în România
  • Lista ţărilor
  • Pe 7 zile
  • Temperatura apei
  • Hartă satelitară
  • Meteo pe hartă
  • Widget-uri
  • user-avatar
    Intrare

    Meteo pe oră la Ekatino

    Astăzi, 17 Noiembrie, Sâmbătă

    Timp Temperatura Precipitaţii Vânt Presiune Umiditate
    00:00 -2°C° 0 mm 3 m/s 764 mmHg 91%
    01:00 -2°C° 0 mm 3 m/s 764 mmHg 91%
    02:00 -3°C° 0 mm 2 m/s 763 mmHg 93%
    03:00 -4°C° 0 mm 3 m/s 763 mmHg 92%
    04:00 -4°C° 0 mm 3 m/s 762 mmHg 91%
    05:00 -4°C° 0 mm 3 m/s 762 mmHg 90%
    06:00 -3°C° 0 mm 4 m/s 761 mmHg 89%
    07:00 -3°C° 0 mm 4 m/s 761 mmHg 87%
    08:00 -3°C° 0 mm 4 m/s 761 mmHg 85%
    09:00 -3°C° 0 mm 4 m/s 760 mmHg 84%
    10:00 -2°C° 0 mm 4 m/s 760 mmHg 82%
    11:00 -2°C° 0 mm 4 m/s 759 mmHg 81%
    12:00 -1°C° 0.3 mm 4 m/s 758 mmHg 82%
    13:00 -1°C° 0.3 mm 4 m/s 758 mmHg 83%
    14:00 -1°C° 0 mm 4 m/s 757 mmHg 86%
    15:00 -1°C° 0.6 mm 4 m/s 756 mmHg 87%
    16:00 -1°C° 0.6 mm 4 m/s 756 mmHg 88%
    17:00 -1°C° 0.6 mm 4 m/s 755 mmHg 89%
    18:00 -1°C° 0.1 mm 4 m/s 754 mmHg 90%
    19:00 -1°C° 0.1 mm 4 m/s 753 mmHg 90%
    20:00 -1°C° 0.1 mm 4 m/s 753 mmHg 90%
    21:00 -1°C° 0.1 mm 4 m/s 752 mmHg 90%
    22:00 -1°C° 0.1 mm 4 m/s 751 mmHg 91%
    23:00 -1°C° 0.1 mm 4 m/s 751 mmHg 91%

    Mâine, 18 Noiembrie, Duminică

    Timp Temperatura Precipitaţii Vânt Presiune Umiditate
    00:00 -1°C° 0.1 mm 4 m/s 750 mmHg 92%
    01:00 -1°C° 0.1 mm 4 m/s 749 mmHg 92%
    02:00 0°C° 0.1 mm 4 m/s 749 mmHg 93%
    03:00 +1°C° 0.2 mm 3 m/s 748 mmHg 93%
    04:00 +1°C° 0.2 mm 3 m/s 748 mmHg 94%
    05:00 +1°C° 0.2 mm 3 m/s 747 mmHg 94%
    06:00 +1°C° 0.1 mm 3 m/s 747 mmHg 95%
    07:00 +2°C° 0.1 mm 2 m/s 747 mmHg 96%
    08:00 +2°C° 0.1 mm 2 m/s 747 mmHg 96%
    09:00 +2°C° 0.1 mm 2 m/s 748 mmHg 97%
    10:00 +2°C° 0.1 mm 2 m/s 748 mmHg 97%
    11:00 +2°C° 0.1 mm 2 m/s 748 mmHg 97%
    12:00 +2°C° 0.1 mm 2 m/s 748 mmHg 97%
    13:00 +2°C° 0.1 mm 2 m/s 748 mmHg 97%
    14:00 +2°C° 0.1 mm 2 m/s 749 mmHg 97%
    15:00 +2°C° 0.1 mm 2 m/s 749 mmHg 97%
    16:00 +2°C° 0.1 mm 2 m/s 750 mmHg 97%
    17:00 +2°C° 0.1 mm 2 m/s 750 mmHg 97%
    18:00 +1°C° 0 mm 2 m/s 750 mmHg 97%
    19:00 +1°C° 0 mm 2 m/s 751 mmHg 97%
    20:00 +1°C° 0 mm 2 m/s 751 mmHg 97%
    21:00 +1°C° 0 mm 2 m/s 752 mmHg 97%
    22:00 +1°C° 0 mm 2 m/s 752 mmHg 97%
    23:00 +1°C° 0 mm 2 m/s 753 mmHg 97%

    Poimâine, 19 Noiembrie, Luni

    Timp Temperatura Precipitaţii Vânt Presiune Umiditate
    00:00 +1°C° 0.1 mm 2 m/s 753 mmHg 97%
    01:00 +1°C° 0.1 mm 2 m/s 754 mmHg 97%
    02:00 +1°C° 0.1 mm 2 m/s 754 mmHg 96%
    03:00 +1°C° 0.1 mm 2 m/s 754 mmHg 96%
    04:00 +1°C° 0.1 mm 2 m/s 755 mmHg 95%
    05:00 0°C° 0.1 mm 3 m/s 755 mmHg 95%
    06:00 0°C° 0.1 mm 3 m/s 756 mmHg 94%
    07:00 -1°C° 0.1 mm 3 m/s 756 mmHg 94%
    08:00 -1°C° 0.1 mm 3 m/s 756 mmHg 93%
    09:00 -1°C° 0 mm 3 m/s 757 mmHg 92%
    10:00 -1°C° 0 mm 3 m/s 757 mmHg 91%
    11:00 -1°C° 0 mm 3 m/s 758 mmHg 90%
    12:00 -1°C° 0 mm 3 m/s 758 mmHg 90%
    13:00 -1°C° 0 mm 3 m/s 758 mmHg 90%
    14:00 -1°C° 0 mm 2 m/s 758 mmHg 90%
    15:00 -2°C° 0 mm 2 m/s 759 mmHg 90%
    16:00 -2°C° 0 mm 2 m/s 759 mmHg 91%
    17:00 -2°C° 0 mm 2 m/s 759 mmHg 92%
    18:00 -3°C° 0 mm 2 m/s 759 mmHg 92%
    19:00 -3°C° 0 mm 2 m/s 759 mmHg 92%
    20:00 -3°C° 0 mm 2 m/s 759 mmHg 92%
    21:00 -3°C° 0 mm 2 m/s 759 mmHg 92%
    22:00 -1°C° 0 mm 1 m/s 759 mmHg 91%
    23:00 -1°C° 0 mm 1 m/s 759 mmHg 91%

    20 Noiembrie, Marţi

    Timp Temperatura Precipitaţii Vânt Presiune Umiditate
    00:00 -1°C° 0 mm 1 m/s 759 mmHg 91%
    01:00 -1°C° 0 mm 1 m/s 759 mmHg 91%
    02:00 -2°C° 0 mm 1 m/s 759 mmHg 91%
    03:00 -2°C° 0 mm 1 m/s 758 mmHg 90%
    04:00 -2°C° 0 mm 1 m/s 758 mmHg 90%
    05:00 -2°C° 0 mm 1 m/s 758 mmHg 90%
    06:00 -2°C° 0 mm 1 m/s 758 mmHg 91%
    07:00 -4°C° 0 mm 0 m/s 757 mmHg 91%
    08:00 -4°C° 0 mm 0 m/s 757 mmHg 91%
    09:00 -2°C° 0 mm 1 m/s 757 mmHg 89%
    10:00 -2°C° 0 mm 1 m/s 757 mmHg 86%
    11:00 -1°C° 0 mm 1 m/s 756 mmHg 84%
    12:00 -3°C° 0 mm 2 m/s 756 mmHg 84%
    13:00 -3°C° 0 mm 2 m/s 756 mmHg 84%
    14:00 -2°C° 0 mm 2 m/s 755 mmHg 84%
    15:00 -2°C° 0 mm 2 m/s 755 mmHg 85%
    16:00 -3°C° 0 mm 2 m/s 754 mmHg 86%
    17:00 -3°C° 0 mm 2 m/s 754 mmHg 86%
    18:00 -3°C° 0 mm 2 m/s 754 mmHg 87%
    19:00 -3°C° 0 mm 2 m/s 754 mmHg 87%
    20:00 -3°C° 0 mm 2 m/s 753 mmHg 87%
    21:00 -3°C° 0 mm 2 m/s 753 mmHg 87%
    22:00 -4°C° 0 mm 2 m/s 753 mmHg 87%
    23:00 -4°C° 0 mm 2 m/s 753 mmHg 88%

    21 Noiembrie, Miercuri

    Timp Temperatura Precipitaţii Vânt Presiune Umiditate
    00:00 -4°C° 0 mm 2 m/s 753 mmHg 88%
    01:00 -4°C° 0 mm 2 m/s 753 mmHg 89%
    02:00 -4°C° 0 mm 2 m/s 753 mmHg 89%
    03:00 -4°C° 0 mm 2 m/s 753 mmHg 90%
    04:00 -4°C° 0 mm 2 m/s 753 mmHg 90%
    05:00 -4°C° 0 mm 3 m/s 752 mmHg 90%
    06:00 -4°C° 0 mm 3 m/s 753 mmHg 90%
    07:00 -4°C° 0 mm 3 m/s 753 mmHg 89%
    08:00 -4°C° 0 mm 3 m/s 753 mmHg 89%
    09:00 -2°C° 0 mm 3 m/s 753 mmHg 86%
    10:00 -2°C° 0 mm 3 m/s 754 mmHg 84%
    11:00 -2°C° 0 mm 3 m/s 754 mmHg 82%
    12:00 -2°C° 0 mm 3 m/s 754 mmHg 82%
    13:00 -2°C° 0 mm 3 m/s 754 mmHg 81%
    14:00 -2°C° 0 mm 3 m/s 754 mmHg 81%
    15:00 -2°C° 0 mm 2 m/s 754 mmHg 82%
    16:00 -3°C° 0 mm 2 m/s 754 mmHg 83%
    17:00 -3°C° 0 mm 2 m/s 754 mmHg 85%
    18:00 -4°C° 0 mm 2 m/s 754 mmHg 87%
    19:00 -4°C° 0 mm 2 m/s 754 mmHg 89%
    20:00 -5°C° 0 mm 2 m/s 754 mmHg 91%
    21:00 -5°C° 0 mm 2 m/s 754 mmHg 91%
    22:00 -5°C° 0 mm 2 m/s 754 mmHg 91%
    23:00 -5°C° 0 mm 2 m/s 754 mmHg 91%

    22 Noiembrie, Joi

    Timp Temperatura Precipitaţii Vânt Presiune Umiditate
    00:00 -5°C° 0 mm 2 m/s 753 mmHg 91%
    01:00 -6°C° 0 mm 3 m/s 753 mmHg 90%
    02:00 -6°C° 0 mm 3 m/s 753 mmHg 90%
    03:00 -6°C° 0 mm 3 m/s 752 mmHg 89%
    04:00 -5°C° 0 mm 4 m/s 752 mmHg 88%
    05:00 -5°C° 0 mm 4 m/s 751 mmHg 87%
    06:00 -5°C° 0 mm 4 m/s 751 mmHg 86%
    07:00 -5°C° 0 mm 4 m/s 750 mmHg 85%
    08:00 -5°C° 0 mm 4 m/s 750 mmHg 84%
    09:00 -5°C° 0 mm 5 m/s 750 mmHg 83%
    10:00 -5°C° 0 mm 5 m/s 750 mmHg 81%
    11:00 -4°C° 0 mm 5 m/s 750 mmHg 80%
    12:00 -4°C° 0 mm 5 m/s 750 mmHg 81%
    13:00 -4°C° 0 mm 5 m/s 750 mmHg 81%
    14:00 -4°C° 0 mm 5 m/s 750 mmHg 82%
    15:00 -3°C° 0 mm 4 m/s 750 mmHg 83%
    16:00 -3°C° 0 mm 4 m/s 750 mmHg 85%
    17:00 -3°C° 0 mm 4 m/s 750 mmHg 86%
    18:00 -3°C° 0 mm 4 m/s 750 mmHg 87%
    19:00 -2°C° 0 mm 3 m/s 750 mmHg 89%
    20:00 -2°C° 0 mm 3 m/s 751 mmHg 90%
    21:00 -2°C° 0 mm 3 m/s 751 mmHg 90%
    22:00 -2°C° 0 mm 3 m/s 751 mmHg 90%
    23:00 -2°C° 0 mm 3 m/s 751 mmHg 90%
    Arată mai mult